星链-4711 (STARLINK-4711 )

导读

STARLINK-4711是美国太空探索技术公司SpaceX星链星座中的一颗卫星,于2022年9月5日发射入轨,属于星链互联网卫星星座组网的组成部分,旨在为全球范围提供高速低延迟的宽带互联网服务,依托星链星座部署,可覆盖偏远地区等网络薄弱区域,支撑全球互联与多元通信需求。

基本信息
目录编号:
53701
目录名称:
STARLINK-4711
国际标识:
2022-107B
轨道中心:
EARTH
卫星名称:
星链-4711
卫星全名:
星链-4711 (STARLINK-4711 )
卫星状态:
在轨 (已飞行1460 天)
发射日期:
2022-09-05 UTC
国别 :
美国 (US)
星等 :
--
轨道信息
数据来源 国际轨道数据
星历时间: 2026-09-04T14:00:02+0800
10小时前
查看轨道信息
半长轴: 6875.172km
偏心率: 0.0000584
轨道倾角: 53.161°
近地点辐角 69.852°
升交点赤经 160.901°
平近点角 2.952°
近地点: 496.633km
远地点: 497.437km
周期: 94.555分钟
每日圈数: 15.229212
详细信息
固有亮度:
5
最大亮度:
2.5
卫星平台:
Starlink v1.5
覆盖范围:
全球
运营商:
太空探索技术公司
运营商所在国:
美国
制造商(研发单位):
太空探索技术公司
制造商所在国:
美国
使用方式:
暂无
卫星简介
星链(Starlink)计划是由太空探索技术公司(SpaceX)提出的一个巨型低轨卫星互联网星座项目,计划在2019年至2024年间在太空搭建由约1.2万颗卫星组成的“星链”网络,其中1584颗将部署在地球上空550千米处的近地轨道,并从2020年开始工作。该卫星仍在工作。
2D轨道图
3D轨道图
轨道高度分析图
轨道倾角分析图
轨道综合分析图
查看轨道综合分析图
交会数据列表
事件ID 空间交会对象 最接近时刻(TCA) 交会距离 交会风险概率(CRP) 交会风险指数(CRI) 操作
CDM_260903-145805-370105-913521
2026-09-03T
14:58:56+0000
1.507 km
极远距离
6.35733E-6 低风险 0.51
CDM_260903-035605-370105-913721
2026-09-03T
03:56:23+0000
1.824 km
极远距离
3.545361E-6 低风险 0.46
CDM_260907-015805-370105-532721
HAWK-6A (55327)
2026-09-07T
01:58:27+0000
1.626 km
极远距离
3.329393E-6 低风险 0.45